DW3371 Weather Reports


Display with metric or nautical units.
time (UTC)temp
F
wind
direction
speed
MPH
gust
MPH
rain 1hr
in
rain 24hr
in
rain mn
in
humidity
%
barometer
mb
20260505010220 51 112 2.0 4.0 0.00 0.00 0.00 82 1013.0
20260505003221 52 128 0.0 4.0 0.00 0.00 0.00 82 1013.2
20260505000218 52 113 2.0 5.0 0.00 0.00 0.00 82 1013.4
20260504233219 52 82 0.0 9.0 0.00 0.00 0.00 81 1013.6
20260504230209 52 87 4.0 9.0 0.00 0.00 0.00 81 1013.7
20260504223208 53 79 3.0 8.0 0.00 0.00 0.00 81 1013.7
20260504220220 53 65 3.0 6.0 0.00 0.00 0.00 80 1013.7
20260504213204 53 52 1.0 4.0 0.00 0.00 0.00 80 1013.9
20260504210204 53 62 1.0 5.0 0.00 0.00 0.00 80 1014.0
20260504203204 53 52 2.0 6.0 0.00 0.00 0.00 80 1014.0
20260504200203 54 10 2.0 6.0 0.00 0.00 0.00 79 1014.0
20260504193204 54 51 3.0 9.0 0.00 0.00 0.00 79 1013.6
20260504190205 55 33 4.0 10.0 0.00 0.00 0.00 77 1013.7
20260504183202 55 62 4.0 11.0 0.00 0.00 0.00 77 1013.5
20260504180156 56 19 5.0 11.0 0.00 0.00 0.00 76 1013.2
20260504173203 56 0 6.0 11.0 0.00 0.00 0.00 75 1013.3
20260504160150 58 41 3.0 10.0 0.00 0.00 0.00 73 1013.3
20260504150151 58 0 5.0 10.0 0.00 0.00 0.00 74 1013.2
20260504140147 59 61 3.0 10.0 0.00 0.00 0.00 72 1013.4
20260504120149 56 79 4.0 11.0 0.00 0.00 0.00 78 1013.8
20260504110141 55 29 3.0 10.0 0.00 0.00 0.00 80 1013.7
20260504100138 55 46 4.0 11.0 0.00 0.00 0.00 80 1013.4
20260504090138 55 68 5.0 12.0 0.00 0.00 0.00 79 1013.1
20260504080146 54 71 5.0 12.0 0.00 0.00 0.00 83 1012.9
20260504070136 53 64 3.0 9.0 0.00 0.00 0.00 85 1012.3
20260504060137 53 25 4.0 9.0 0.00 0.00 0.00 85 1011.7
20260504043134 52 0 4.0 9.0 0.00 0.00 0.00 86 1011.0
20260504040132 52 355 4.0 10.0 0.00 0.00 0.00 86 1010.8
20260504033131 53 346 4.0 9.0 0.00 0.00 0.00 86 1010.7
20260504030131 53 19 3.0 9.0 0.00 0.00 0.00 86 1010.7
20260504023130 53 348 4.0 9.0 0.00 0.00 0.00 86 1010.8
20260504013129 53 333 3.0 7.0 0.00 0.00 0.00 86 1010.7